Regional Weather Roundup
Issued by NWS

Home | Current Version | Previous Version | Text Only | Print | Product List | Glossary Off
Versions: 1 2 3 4 5 6 7 8 9 10 11 12 13 14 15 16 17 18 19 20 21 22 23 24 25 26 27 28 29 30 31 32 33 34 35 36 37 38 39 40 41 42 43 44 45 46 47 48 49 50

000
ASUS43 KMPX 171510
RWRMN
WEATHER ROUNDUP FOR MINNESOTA
NATIONAL WEATHER SERVICE TWIN CITIES/CHANHASSEN MN
900 AM CST SUN DEC 17 2017


NOTE: "FAIR" INDICATES FEW OR NO CLOUDS BELOW 12,000 FEET WITH NO
SIGNIFICANT WEATHER AND/OR OBSTRUCTIONS TO VISIBILITY. N/A MEANS
CURRENT SKY AND/OR WEATHER CONDITIONS ARE NOT AVAILABLE.

MNZ060>063-068>070-171600-
   Twin Cities Metro

CITY           SKY/WX    TMP DP  RH WIND       PRES   REMARKS
TWIN CITIES    CLOUDY    24  23  96 CALM      30.10R FOG
ST PAUL        CLOUDY    24  22  91 NW3       30.11S FOG
CRYSTAL        CLOUDY    22  17  81 CALM      30.08F HAZE
BLAINE         FOG       23  23 100 CALM      30.09S VSB 1/2
LAKEVILLE      FOG       21  21 100 CALM      30.08S VSB 3/4
EDEN PRAIRIE   CLOUDY    24  20  84 CALM      30.08S FOG
SOUTH ST PAUL  CLOUDY    24  24  98 CALM      30.10S FOG
LAKE ELMO      CLOUDY    25  23  93 CALM      30.10R FOG
$$
MNZ001>005-007-008-013>017-022>024-027-028-171600-
   Northwest Minnesota

CITY           SKY/WX    TMP DP  RH WIND       PRES   REMARKS
BEMIDJI        MOCLDY    21  20  96 CALM      30.02S FOG
HALLOCK        CLEAR     10   9  92 S5        29.97S WCI   2
ROSEAU         CLEAR     18  14  86 S6        29.96S WCI   9
WARROAD        MOCLDY    21  19  93 SW6       29.95S FOG     WCI  14
THIEF RVR FALL FOG       19  17  92 S12       30.01R VSB 1/4 WCI   7
CROOKSTON      CLOUDY    10   9  92 CALM      30.04R FOG
FOSSTON        CLOUDY    21  19  93 S9        30.03S WCI  11
DETROIT LAKES  CLOUDY    27  25  93 S3        30.04F FOG
MOORHEAD       CLOUDY    27  25  93 CALM      30.06S FOG
PARK RAPIDS    FOG       23  21  92 W3        30.02F VSB 1/2
MAHNOMEN       FAIR      22  21  95 S7        30.02S WCI  14
$$
MNZ006-009>011-018-025>026-171600-
   North Central Minnesota

CITY           SKY/WX    TMP DP  RH WIND       PRES   REMARKS
BAUDETTE       CLOUDY    25  23  92 S10       29.96R WCI  15
FLAG ISLAND    CLOUDY    21  19  93 SW3       29.94S FOG
INTL FALLS     FOG       23  21  92 SW9       30.00R VSB 3/4 WCI  13
WASKISH        MOCLDY    23  21  93 S5        30.00F WCI  17
BIG FORK       CLOUDY    25  21  86 S5        30.02S FOG     WCI  19
LONGVILLE      CLOUDY    23  23 100 CALM      30.04F FOG
GRAND RAPIDS   CLOUDY    21  20  96 S5        30.06S FOG     WCI  15
CRANE LAKE     CLOUDY    19  19 100 S6        30.04S WCI  11
ORR            CLOUDY    21  19  93 S6        30.00S WCI  14
COOK           CLOUDY    21  19  93 S3        30.04F
WALKER         CLOUDY    23  22  96 SW5       30.03S FOG     WCI  17
$$
MNZ012-019>021-037-171600-
   Northeast Minnesota

CITY           SKY/WX    TMP DP  RH WIND       PRES   REMARKS
DULUTH         FOG       20  19  96 S6        30.05F VSB 1   WCI  12
ELY            CLOUDY    19  19 100 SW6       30.04S WCI  11
HIBBING        CLOUDY    20  19  96 S3        30.04F FOG
EVELETH        CLOUDY    20  17  87 SW5       30.05S FOG     WCI  13
DULUTH HARBOR  CLOUDY    25  19  80 CALM      30.12S
TWO HARBORS    CLOUDY    25  19  80 SW3       30.06S HAZE
SILVER BAY     CLOUDY    25  21  86 SW3       30.05F
GRAND MARAIS     N/A     28  22  78 W8        30.09S WCI  20
G MARAIS ARPRT CLOUDY    19  18  93 S5        30.02F FOG     WCI  13
$$
MNZ029>031-032-039>041-046>048-054>057-064-171600-
   West Central Minnesota

CITY           SKY/WX    TMP DP  RH WIND       PRES   REMARKS
FERGUS FALLS   PTCLDY    25  25 100 CALM      30.08S FOG
WHEATON        CLOUDY    27  25  93 SE5       30.08S FOG     WCI  21
MORRIS         CLOUDY    28  27  93 S7        30.07S FOG     WCI  21
ALEXANDRIA     CLOUDY    27  26  96 S8        30.07R FOG     WCI  19
ELBOW LAKE     CLOUDY    25  25 100 SE6       30.06S FOG     WCI  18
WADENA         FOG       25  25 100 CALM      30.04S VSB 1/2
GLENWOOD       FOG       27  25  93 SE6       30.07S VSB 1/4 WCI  20
APPLETON       CLOUDY    28  27  93 S3        30.08S FOG
BENSON         CLOUDY    27  27 100 S5        30.09S FOG     WCI  21
ORTONVILLE     CLOUDY    27  25  93 S3        30.06F FOG
MADISON        CLOUDY    28  28 100 S7        30.07F FOG     WCI  21
WILLMAR        CLOUDY    27  25  93 CALM      30.08F FOG
$$
MNZ033>034-036-042>043-049>051-058-059-171600-
   Central Minnesota

CITY           SKY/WX    TMP DP  RH WIND       PRES   REMARKS
ST CLOUD       CLOUDY    20  18  92 CALM      30.09S
SAUK CENTRE    CLOUDY    24  23  97 SE5       30.08R FOG     WCI  18
PAYNESVILLE    CLOUDY    23  23  98 CALM      30.08F FOG
AITKIN         CLOUDY    21  19  93 CALM      30.06R FOG
PINE RIVER     CLOUDY    23  21  93 CALM      30.08S FOG
BRAINERD       FOG       24  22  91 S5        30.07R VSB 3/4 WCI  18
STAPLES        CLOUDY    25  25 100 S3        30.05S FOG
LONG PRAIRIE   SNOW      25  23  93 SE7       30.07R VSB 1/2 WCI  17
LITTLE FALLS   CLOUDY    23  21  93 S3        30.09R FOG
LITCHFIELD     CLOUDY    25  21  86 CALM      30.07F
BUFFALO        CLOUDY    21  18  87 CALM      30.10F
MAPLE LAKE     CLOUDY    22  20  92 CALM      30.09F
HUTCHINSON     PTCLDY    24  21  89 CALM      30.08F
$$
MNZ037-044-045-052-053-171600-
   East Central Minnesota

CITY           SKY/WX    TMP DP  RH WIND       PRES   REMARKS
PRINCETON      CLOUDY    21  18  86 CALM      30.08F
MORA           CLOUDY    21  18  86 CALM      30.11R
CAMBRIDGE      PTCLDY    21  18  86 CALM      30.09F
RUSH CITY      CLOUDY    19  18  94 CALM      30.09F FOG
MOOSE LAKE     CLOUDY    21  19  93 CALM      30.07R
HINCKLEY       CLOUDY    21  19  93 CALM      30.10R
CLOQUET        CLOUDY    19  18  93 S3        30.07R FOG
MCGREGOR       CLOUDY    23  21  93 CALM      30.07R
$$
MNZ071>073-080-081-089-090-097-098-171600-
   Southwest Minnesota

CITY           SKY/WX    TMP DP  RH WIND       PRES   REMARKS
MONTEVIDEO     FOG       27  27 100 S3        30.08S VSB 1
GRANITE FALLS  CLOUDY    27  25  91 E3        30.08F FOG
CANBY          CLOUDY    28  28  98 E3        30.07F FOG
MARSHALL       CLOUDY    25  23  92 CALM      30.06F FOG
REDWOOD FALLS  CLOUDY    26  23  88 N5        30.07S FOG     WCI  20
OLIVIA         CLOUDY    27  23  86 E3        30.06F
PIPESTONE      CLOUDY    25  25 100 CALM      30.03R FOG
WINDOM           N/A     25  16  68 N3        30.05R HAZE
WORTHINGTON    FOG       25  25 100 NE10      30.05R VSB 1   WCI  15
JACKSON        CLOUDY    25  23  93 NE6       30.05R FOG     WCI  18
TRACY          CLOUDY    27  27 100 CALM      30.05S FOG
SLAYTON        CLOUDY    25  24  99 N6        30.04S FOG     WCI  18
$$
MNZ065>067-074>077-082>085-091>093-171600-
   South Central Minnesota

CITY           SKY/WX    TMP DP  RH WIND       PRES   REMARKS
MANKATO        PTCLDY    21  19  92 E5        30.08R WCI  15
NEW ULM        CLOUDY    23  19  86 NE5       30.06F WCI  17
ST JAMES       CLOUDY    23  21  93 N3        30.08R
FAIRMONT       CLOUDY    24  22  91 NE7       30.06S FOG     WCI  16
GLENCOE        PTCLDY    24  24 100 N3        30.07F FOG
FARIBAULT      CLOUDY    25  21  86 CALM      30.07S FOG
OWATONNA       FOG       25  23  93 E5        30.06R VSB 1   WCI  19
WASECA         FOG       23  23 100 E6        30.08R VSB 3/4 WCI  16
ALBERT LEA     FOG       25  23  93 E5        30.05S VSB 1/4 WCI  19
$$
MNZ078>079-086>088-094>096-171600-
   Southeast Minnesota

CITY           SKY/WX    TMP DP  RH WIND       PRES   REMARKS
ROCHESTER      FOG       25  24  96 E7        30.05F VSB 1/4 WCI  17
RED WING       CLOUDY    27  21  80 SE3       30.10R FOG
STANTON        CLOUDY    25  23  93 E3        30.07S FOG
DODGE CENTER   FOG       25  23  93 E5        30.05S VSB<1/4 WCI  19
WINONA         CLOUDY    30  28  93 E8        30.11S WCI  23
AUSTIN         FOG       25  25 100 E3        30.04F VSB 1/2
PRESTON        FOG       25  23  95 E5        30.06S VSB 1/2 WCI  19
$$
ABBREVIATIONS USED IN REMARKS
   TC - TEMPERATURES IN CELSIUS
  WCI - WIND CHILL INDEX
   HX - HEAT INDEX
  VSB - VISIBILITY
$$




USA.gov is the U.S. government's official web portal to all federal, state and local government web resources and services.